Change the Weather History Date:

Sunday, January 13, 2013

  Actual Average Record
Temperature  
Mean Temperature 42 °F -  
Max Temperature 50 °F 27 °F 62 °F (2005)
Min Temperature 35 °F 12 °F -13 °F (2015)
Degree Days  
Heating Degree Days 22    
Moisture  
Dew Point 39 °F    
Average Humidity 91    
Maximum Humidity 100    
Minimum Humidity 76    
Precipitation  
Precipitation 0.00 in - - ()
Sea Level Pressure  
Sea Level Pressure 30.06 in    
Wind  
Wind Speed 4 mph (ESE)    
Max Wind Speed 13 mph    
Max Gust Speed 18 mph    
Visibility 6 miles    
Events      
Averages and records for this station are not official NWS values.
T = Trace of Precipitation, MM = Missing Value Source: NWS Daily Summary

Daily Weather History Graph

Daily Weather History Graph

Search for Another Location

Airport or City:

Trip Planner

Search our weather history database for the weather conditions in past years. The results will help you decide how hot, cold, wet, or windy it might be!

Date:

Astronomy

Jan. 13, 2013 Rise Set
Actual Time 7:21 AM EST 4:42 PM EST
Civil Twilight 6:49 AM EST 5:13 PM EST
Nautical Twilight 6:14 AM EST 5:48 PM EST
Astronomical Twilight 5:40 AM EST 6:22 PM EST
Moon 8:14 AM EST (1/13) 7:22 PM EST (1/13)
Length of Visible Light 10h 24m
Length of Day
9h 21m
Waxing Crescent, 5% of the Moon is Illuminated
Jan 13
Waxing Crescent
Jan 18
First Quarter
Jan 26
Full
Feb 3
Last Quarter
Feb 10
New

Hourly Weather History & Observations

Time (EST) Temp. Windchill Dew Point Humidity Pressure Visibility Wind Dir Wind Speed Gust Speed Precip Events Conditions
12:18 AM 39.2 °F 35.9 °F 35.6 °F 87% 30.11 in 1.8 mi East 4.6 mph - N/A   Overcast
12:26 AM 37.4 °F 33.8 °F 37.4 °F 100% 30.12 in 2.0 mi ESE 4.6 mph - N/A   Overcast
12:36 AM 37.4 °F - 37.4 °F 100% 30.11 in 2.0 mi Calm Calm - N/A   Overcast
12:52 AM 37.0 °F - 36.0 °F 96% 30.13 in 2.0 mi Calm Calm - N/A   Overcast
1:05 AM 37.4 °F - 35.6 °F 93% 30.11 in 4.0 mi Calm Calm - N/A   Overcast
1:42 AM 37.4 °F - 33.8 °F 87% 30.13 in 4.0 mi Calm Calm - N/A   Overcast
1:52 AM 37.0 °F - 35.1 °F 93% 30.15 in 3.0 mi Calm Calm - N/A   Overcast
2:25 AM 37.4 °F 34.9 °F 35.6 °F 93% 30.13 in 2.0 mi NE 3.5 mph - N/A   Overcast
2:44 AM 37.4 °F 32.8 °F 35.6 °F 93% 30.12 in 1.5 mi East 5.8 mph - N/A   Overcast
2:52 AM 37.0 °F 33.3 °F 35.1 °F 93% 30.13 in 1.8 mi East 4.6 mph - N/A   Overcast
3:01 AM 37.4 °F 33.8 °F 35.6 °F 93% 30.11 in 2.0 mi East 4.6 mph - N/A   Overcast
3:15 AM 37.4 °F 33.8 °F 35.6 °F 93% 30.10 in 1.8 mi ENE 4.6 mph - N/A   Overcast
3:23 AM 37.4 °F 34.9 °F 35.6 °F 93% 30.09 in 2.0 mi ESE 3.5 mph - N/A   Overcast
3:34 AM 37.4 °F 34.9 °F 35.6 °F 93% 30.09 in 3.0 mi SSE 3.5 mph - N/A   Overcast
3:52 AM 37.0 °F - 36.0 °F 96% 30.11 in 2.5 mi Calm Calm - N/A   Overcast
4:01 AM 37.4 °F - 35.6 °F 93% 30.09 in 3.0 mi Calm Calm - N/A   Overcast
4:16 AM 37.4 °F - 35.6 °F 93% 30.09 in 2.0 mi Calm Calm - N/A   Overcast
4:36 AM 35.6 °F - 35.6 °F 100% 30.08 in 1.5 mi Calm Calm - N/A   Overcast
4:52 AM 36.0 °F 33.3 °F 35.1 °F 97% 30.10 in 1.0 mi ESE 3.5 mph - N/A   Overcast
5:04 AM 37.4 °F 34.9 °F 35.6 °F 93% 30.08 in 0.8 mi SE 3.5 mph - N/A   Overcast
5:43 AM 37.4 °F - 35.6 °F 93% 30.08 in 1.2 mi Calm Calm - N/A   Overcast
5:52 AM 37.0 °F - 36.0 °F 96% 30.11 in 1.2 mi Calm Calm - N/A   Overcast
6:14 AM 37.4 °F 34.9 °F 35.6 °F 93% 30.07 in 0.8 mi ENE 3.5 mph - N/A   Mist
6:38 AM 37.4 °F 33.8 °F 35.6 °F 93% 30.08 in 1.5 mi ESE 4.6 mph - N/A   Overcast
6:43 AM 37.4 °F 31.4 °F 35.6 °F 93% 30.08 in 3.0 mi ESE 8.1 mph - N/A   Overcast
6:52 AM 37.9 °F 32.7 °F 37.0 °F 97% 30.10 in 8.0 mi SE 6.9 mph - N/A   Overcast
7:52 AM 37.9 °F 33.5 °F 35.1 °F 89% 30.11 in 9.0 mi SE 5.8 mph - N/A   Overcast
8:52 AM 39.0 °F 34.8 °F 37.0 °F 93% 30.11 in 10.0 mi ESE 5.8 mph - N/A   Overcast
9:52 AM 39.9 °F 34.5 °F 37.0 °F 89% 30.11 in 10.0 mi ESE 8.1 mph - N/A   Mostly Cloudy
10:35 AM 41.0 °F 33.9 °F 37.4 °F 87% 30.07 in 10.0 mi ESE 12.7 mph - N/A   Scattered Clouds
10:52 AM 42.1 °F 36.1 °F 37.9 °F 85% 30.08 in 10.0 mi ESE 10.4 mph - N/A   Clear
11:52 AM 48.0 °F - 41.0 °F 77% 30.04 in 10.0 mi East 11.5 mph 17.3 mph N/A   Clear
12:38 PM 50.0 °F - 42.8 °F 76% 30.01 in 10.0 mi East 12.7 mph 18.4 mph N/A   Mostly Cloudy
12:52 PM 50.0 °F - 43.0 °F 77% 30.02 in 10.0 mi East 9.2 mph 18.4 mph N/A   Overcast
1:52 PM 48.0 °F - 44.1 °F 86% 30.01 in 10.0 mi East 6.9 mph 18.4 mph N/A   Overcast
2:52 PM 48.0 °F - 44.1 °F 86% 30.00 in 10.0 mi East 11.5 mph - N/A   Overcast
3:11 PM 48.2 °F - 44.6 °F 87% 29.98 in 10.0 mi ESE 6.9 mph - N/A   Overcast
3:33 PM 48.2 °F - 44.6 °F 87% 29.97 in 10.0 mi East 9.2 mph - N/A   Overcast
3:52 PM 50.0 °F - 46.0 °F 86% 29.97 in 10.0 mi NE 8.1 mph - N/A   Overcast
4:01 PM 50.0 °F - 46.4 °F 87% 29.94 in 10.0 mi Variable 3.5 mph - N/A   Mostly Cloudy
4:40 PM 48.2 °F - 44.6 °F 87% 29.97 in 10.0 mi ESE 8.1 mph - N/A   Overcast
4:52 PM 48.0 °F - 44.1 °F 86% 29.99 in 10.0 mi ESE 6.9 mph - N/A   Overcast
5:52 PM 46.9 °F - 44.1 °F 90% 29.99 in 8.0 mi Variable 4.6 mph - N/A   Overcast
6:14 PM 46.4 °F - 42.8 °F 87% 29.97 in 8.0 mi Calm Calm - N/A   Overcast
6:42 PM 46.4 °F 45.2 °F 44.6 °F 93% 29.98 in 9.0 mi ESE 3.5 mph - N/A   Overcast
6:52 PM 46.0 °F 44.8 °F 44.1 °F 93% 30.01 in 9.0 mi SSE 3.5 mph - N/A   Overcast
7:37 PM 44.6 °F - 41.0 °F 87% 30.00 in 7.0 mi Calm Calm - N/A   Overcast
7:52 PM 43.0 °F - 39.9 °F 89% 30.01 in 7.0 mi Calm Calm - N/A   Overcast
8:52 PM 44.1 °F - 42.1 °F 93% 29.99 in 6.0 mi Calm Calm - N/A   Overcast
8:59 PM 42.8 °F - 41.0 °F 93% 29.97 in 7.0 mi Calm Calm - N/A   Overcast
9:52 PM 42.1 °F - 39.0 °F 89% 29.99 in 7.0 mi Calm Calm - N/A   Overcast
10:52 PM 42.1 °F 40.2 °F 39.0 °F 89% 29.98 in 9.0 mi SE 3.5 mph - N/A   Overcast
11:52 PM 44.1 °F 41.5 °F 43.0 °F 96% 29.97 in 6.0 mi ESE 4.6 mph - N/A   Overcast